User: anonymous   Login
Location: Unspecified
(0.0000°N, 0.0000°E)
Time: 00:11:08
(UTC+00:00)
Language:

Spot 1 - Orbit

View from above orbital plane
View from above orbital plane
View from above satellite
View from above satellite

Ground track
Ground track

The orbit data is extracted from the following two-line orbital elements,

1 16613U 86019A   18112.21846346 +.00000100 +00000-0 +26204-4 0  9997
2 16613 098.6736 183.8910 0143157 162.4236 263.4077 14.65019987374499
Epoch (UTC): 22 April 2018 05:14:35
Eccentricity: 0.0143157
inclination: 98.6736°
perigee height: 576 km
apogee height: 778 km
right ascension of ascending node: 183.8910°
argument of perigee: 162.4236°
revolutions per day: 14.65019987
mean anomaly at epoch: 263.4077°
orbit number at epoch: 37449

The dashed part of the orbit path shows where the satellite is in the earth's shadow,  

DLR